Regional Weather Roundup
Issued by NWS

Home | Current Version | Previous Version | Graphics & Text | Print | Product List | Glossary On
Versions: 1 2 3 4 5 6 7 8 9 10 11 12 13 14 15 16 17 18 19 20 21 22 23 24 25 26 27 28
000
ASUS45 KTFX 100710
RWRMT
MONTANA REGIONAL WEATHER ROUNDUP
NATIONAL WEATHER SERVICE GREAT FALLS MT
1200 AM MST SUN DEC 10 2017

NOTE: "FAIR" INDICATES FEW OR NO CLOUDS BELOW 12000 FEET WITH NO
SIGNIFICANT WEATHER AND/OR OBSTRUCTIONS TO VISIBILITY.

MTZ001>007-043-100800-
WEST OF THE DIVIDE

CITY           SKY/WX    TMP DP  RH WIND       PRES   REMARKS
KALISPELL      CLOUDY    24  20  84 CALM      30.66S
MISSOULA       CLOUDY    19  18  95 S3        30.67R FOG
BUTTE          FAIR       8   3  80 CALM      30.55R
MULLAN PASS    FAIR      34   9  35 NW5       30.51S
ANACONDA         N/A     12   7  79 CALM      30.56S
DEER LODGE       N/A      7   3  85 CALM      30.59S
EUREKA           N/A     25  18  74 MISG      30.67S
HAMILTON         N/A     16  12  86 CALM      30.64S VSB 3/4
LIBBY            N/A    N/A N/A N/A CALM      30.65S
PLAINS           N/A     28  19  69 CALM      30.63R
RONAN            N/A     25  20  81 S5        30.63R
$$

MTZ008-052>055-100800-
SOUTHWEST MONTANA

CITY           SKY/WX    TMP DP  RH WIND       PRES   REMARKS
BOZEMAN        FAIR      13   8  81 S5        30.53R
DILLON         FAIR      19   9  65 VRB7      30.54R WCI  10
W YELLOWSTONE  FAIR      -4  -8  84 SW3       30.62R
ENNIS          CLOUDY    25  12  58 SE9       30.58R WCI  15
THREE FORKS      N/A      6   2  84 CALM      30.45R
TWIN BRIDGES     N/A     21   9  60 CALM      30.45R
$$

MTZ009-010-012-014-046-048-049-054-100800-
EAST SLOPES AND CENTRAL MONTANA

CITY           SKY/WX    TMP DP  RH WIND       PRES   REMARKS
CUT BANK       FAIR      43   6  21 W22       30.28S
GREAT FALLS    FAIR      41   8  25 SW17      30.34S
MALMSTROM AFB  FAIR      39  10  31 SW18      30.34S WCI  29
HELENA         FAIR      17  14  88 CALM      30.52R
BOWMANS CRNR   FAIR      33  10  38 S18       30.37R WCI  22
CHOTEAU          N/A     43   1  17 SW10      30.34S
FAIRFIELD      FAIR      36   6  28 MISG      30.33S
POWER          FAIR      34   8  32 SW10      30.33R WCI  26
RAYNESFORD     FAIR      50   4  15 SW20G25   30.33S
ULM            FAIR      35  13  41 S13       30.37S WCI  26
$$

MTZ011-013-016-021-045-047-050-051-100800-
NORTH CENTRAL MONTANA

CITY           SKY/WX    TMP DP  RH WIND       PRES   REMARKS
HAVRE          FAIR      36  11  35 SW16      30.25S WCI  26
LEWISTOWN      FAIR      34  12  40 W5        30.33S
N BAR RANCH    FAIR      46   1  15 NW16G23   30.31S
CHINOOK          N/A     36  10  35 NW9       30.23R WCI  29
DENTON         FAIR      42   8  24 MISG      30.27F
GEYSER         FAIR      43   6  21 W6        30.32F
GRASS RANGE    FAIR      46   8  20 SW21G30   30.26F
STANFORD       FAIR      45   3  18 W7        30.33S
WINIFRED       FAIR      40   9  27 W13       30.28F
$$

MTZ017>020-022>027-061-062-100800-
NORTHEAST MONTANA

CITY           SKY/WX    TMP DP  RH WIND       PRES   REMARKS
GLASGOW        FAIR      31  12  45 NW6       30.17S WCI  25
GLENDIVE       FAIR      41  13  31 W15       30.16R
JORDAN           N/A     39  11  31 W15       30.23R WCI  31
SIDNEY         FAIR      39  17  41 NW7       30.11R
WOLF POINT     FAIR      34  13  41 SW6       30.16R WCI  29
MALTA          CLEAR     34  12  40 W14G21    30.21R WCI  24
PLENTYWOOD       N/A     36  21  55 CALM      30.07R
POPLAR           N/A     34  12  40 CALM      30.13S
SCOBEY           N/A     37  13  37 W3        30.07R
$$

MTZ028>42-056>058-100800-
SOUTHCENTRAL AND SOUTHEAST MONTANA

CITY           SKY/WX    TMP DP  RH WIND       PRES   REMARKS
BAKER          FAIR      33  18  53 W17       30.18S WCI  22
BILLINGS       FAIR      34  18  52 SW23      30.35R WCI  22
LIVINGSTON     FAIR      42  12  29 W20G29    30.44S
MILES CITY     FAIR      36  13  38 W10       30.24S WCI  28
BIG TIMBER     CLEAR     41  10  28 W31G37    30.39S
EKALAKA          N/A     40   9  28 SW15      30.17R
FORSYTH          N/A     37  10  32 SW5       30.28R
HARLOWTON      FAIR      42   8  24 NW30      30.36S
LAUREL           N/A     30  18  59 SW10      30.37  WCI  21
ROUNDUP          N/A     37   6  27 S12       30.19S WCI  29
$$

REGIONAL REPORTS...DAKOTAS

CITY           SKY/WX    TMP DP  RH WIND       PRES   REMARKS
WILLISTON      FAIR      38  22  52 W13       30.07S WCI  30
MINOT          MOCLDY    37  25  61 W18       29.97R WCI  27
DICKINSON      FAIR      37  20  50 W20       30.05R WCI  27
BEACH          FAIR      41  12  30 W25G32    30.15R
CROSBY         FAIR      36  25  64 W14       30.03R WCI  27
TIOGA          FAIR      34  23  64 NW16G23   30.04R WCI  23
BISMARCK       FAIR      42  27  55 NW12      30.00R
GRAND FORKS    FAIR      26  21  81 N14       29.89R WCI  14
FARGO          FAIR      28  22  78 NW12      29.88R WCI  18
BUFFALO SD       N/A     40  16  37 W18       30.10S
RAPID CITY     FAIR      50   5  16 NW21G30   30.19S
$$

REGIONAL REPORTS...WYOMING/IDAHO/WASHINGTON

CITY           SKY/WX    TMP DP  RH WIND       PRES   REMARKS
GILLETTE       FAIR      36  12  37 W14       30.33R WCI  27
SHERIDAN       FAIR      30  11  45 SW7       30.35S WCI  23
BUFFALO WY     FAIR      42  -1  16 W3        30.37R
CODY           FAIR      37   3  24 SW10      30.41S WCI  30
YELLOWSTONE LA   N/A      4   1  88 NW5       30.61R
IDAHO FALLS    CLOUDY     7   4  87 NW3       30.65S
SALMON         CLOUDY    18  15  88 NE7       30.79R WCI   9
BOISE          CLOUDY    27  21  78 CALM      30.73S
SPOKANE        CLOUDY    28  25  88 NE5       30.64R
$$

REGIONAL REPORTS...ALBERTA

CITY           SKY/WX    TMP DP  RH WIND       PRES   REMARKS
EDMONTON       CLOUDY    34  18  51 W8        30.11R WCI  27
CALGARY        PTCLDY    39   9  28 S8        30.18S
LETHBRIDGE     CLEAR     48   9  20 W23G36    30.22S
MEDICINE HAT   CLEAR     32  16  51 SW12      30.20S WCI  23
$$

REGIONAL REPORTS...SASKATCHEWAN

CITY           SKY/WX    TMP DP  RH WIND       PRES   REMARKS
SWIFT CURRENT  CLEAR     36  18  48 W20       30.11R WCI  25
REGINA         MOCLDY    28  21  74 W12       30.01R WCI  18
SASKATOON      PTCLDY    25  19  80 W10       30.02S WCI  15
$$




USA.gov is the U.S. government's official web portal to all federal, state and local government web resources and services.